Rensselaer, IN

4:26 AM CDT on April 30, 2017 (GMT -0500)
Jasper County

Weather History for KRZL - April, 2013

Change the Weather History Date:

Monday, April 1, 2013

  Actual Average (KIKK) Record (KIKK)
Temperature  
Mean Temperature 35 °F -  
Max Temperature 42 °F 55 °F 85 °F (1986)
Min Temperature 28 °F 34 °F 21 °F (1987)
Degree Days  
Heating Degree Days 30    
Moisture  
Dew Point 18 °F    
Average Humidity 53    
Maximum Humidity 80    
Minimum Humidity 27    
Precipitation  
Precipitation 0.00 in - - ()
Sea Level Pressure  
Sea Level Pressure 30.07 in    
Wind  
Wind Speed 10 mph (WNW)    
Max Wind Speed 20 mph    
Max Gust Speed 28 mph    
Visibility 10 miles    
Events      
Averages and records for this station are not official NWS values.
T = Trace of Precipitation, MM = Missing Value Source: NWS Daily Summary

Daily Weather History Graph

Daily Weather History Graph

Search for Another Location

Airport or City:

Trip Planner

Search our weather history database for the weather conditions in past years. The results will help you decide how hot, cold, wet, or windy it might be!

Date:

Astronomy

Apr. 01, 2013 Rise Set
Actual Time 6:31 AM CDT 7:13 PM CDT
Civil Twilight 6:03 AM CDT 7:41 PM CDT
Nautical Twilight 5:31 AM CDT 8:14 PM CDT
Astronomical Twilight 4:57 AM CDT 8:48 PM CDT
Moon 12:23 AM CDT (4/1) 10:16 AM CDT (4/1)
Length of Visible Light 13h 37m
Length of Day
12h 42m
Waning Gibbous, 67% of the Moon is Illuminated
Apr 1
Waning Gibbous
Apr 2
Last Quarter
Apr 10
New
Apr 18
First Quarter
Apr 25
Full

Hourly Weather History & Observations

Time (CDT) Temp. Windchill Dew Point Humidity Pressure Visibility Wind Dir Wind Speed Gust Speed Precip Events Conditions
12:15 AM 37.4 °F 29.8 °F 26.6 °F 65% 29.88 in 10.0 mi WNW 11.5 mph 19.6 mph N/A   Unknown
12:35 AM 37.4 °F 28.9 °F 26.6 °F 65% 29.88 in 10.0 mi NW 13.8 mph 19.6 mph N/A   Unknown
12:55 AM 37.4 °F 28.5 °F 26.6 °F 65% 29.89 in 10.0 mi WNW 15.0 mph - N/A   Unknown
1:15 AM 37.4 °F 30.3 °F 26.6 °F 65% 29.90 in 10.0 mi WNW 10.4 mph - N/A   Unknown
1:35 AM 35.6 °F 28.6 °F 26.6 °F 70% 29.90 in 10.0 mi WNW 9.2 mph - N/A   Unknown
1:55 AM 35.6 °F 29.2 °F 26.6 °F 70% 29.90 in 10.0 mi WNW 8.1 mph - N/A   Unknown
2:15 AM 35.6 °F 28.6 °F 26.6 °F 70% 29.91 in 10.0 mi WNW 9.2 mph - N/A   Unknown
2:35 AM 35.6 °F 28.6 °F 28.4 °F 75% 29.92 in 10.0 mi West 9.2 mph - N/A   Unknown
3:15 AM 33.8 °F 27.7 °F 26.6 °F 75% 29.93 in 10.0 mi WNW 6.9 mph - N/A   Unknown
3:35 AM 33.8 °F 28.6 °F 26.6 °F 75% 29.94 in 10.0 mi WNW 5.8 mph - N/A   Unknown
4:15 AM 32.0 °F 26.4 °F 23.0 °F 69% 29.95 in 10.0 mi WNW 5.8 mph - N/A   Unknown
4:35 AM 32.0 °F 25.6 °F 23.0 °F 69% 29.96 in 10.0 mi WNW 6.9 mph - N/A   Unknown
4:55 AM 32.0 °F 27.5 °F 23.0 °F 69% 29.97 in 10.0 mi West 4.6 mph - N/A   Unknown
5:15 AM 30.2 °F 25.4 °F 23.0 °F 75% 29.98 in 10.0 mi WNW 4.6 mph - N/A   Unknown
5:35 AM 30.2 °F 25.4 °F 23.0 °F 75% 29.99 in 10.0 mi West 4.6 mph - N/A   Unknown
5:55 AM 28.4 °F 23.3 °F 23.0 °F 80% 30.00 in 10.0 mi West 4.6 mph - N/A   Unknown
6:15 AM 30.2 °F 24.3 °F 23.0 °F 75% 30.01 in 10.0 mi WNW 5.8 mph - N/A   Unknown
6:35 AM 28.4 °F 22.2 °F 23.0 °F 80% 30.02 in 10.0 mi WNW 5.8 mph - N/A   Unknown
6:55 AM 30.2 °F 25.4 °F 23.0 °F 75% 30.03 in 10.0 mi WNW 4.6 mph - N/A   Unknown
7:15 AM 30.2 °F 25.4 °F 23.0 °F 75% 30.05 in 10.0 mi WNW 4.6 mph - N/A   Unknown
7:35 AM 32.0 °F 26.4 °F 23.0 °F 69% 30.05 in 10.0 mi WNW 5.8 mph - N/A   Unknown
7:55 AM 32.0 °F 24.2 °F 23.0 °F 69% 30.06 in 10.0 mi NW 9.2 mph - N/A   Unknown
8:15 AM 33.8 °F 26.4 °F 23.0 °F 65% 30.07 in 10.0 mi NW 9.2 mph - N/A   Unknown
8:35 AM 33.8 °F 26.4 °F 23.0 °F 65% 30.07 in 10.0 mi NW 9.2 mph - N/A   Unknown
8:55 AM 35.6 °F 28.0 °F 21.2 °F 56% 30.08 in 10.0 mi NW 10.4 mph - N/A   Unknown
9:15 AM 35.6 °F 28.0 °F 21.2 °F 56% 30.09 in 10.0 mi NW 10.4 mph - N/A   Unknown
9:35 AM 35.6 °F 27.5 °F 21.2 °F 56% 30.09 in 10.0 mi NW 11.5 mph 17.3 mph N/A   Unknown
9:55 AM 35.6 °F 28.6 °F 17.6 °F 48% 30.09 in 10.0 mi NNW 9.2 mph 17.3 mph N/A   Unknown
10:15 AM 35.6 °F 28.6 °F 17.6 °F 48% 30.10 in 10.0 mi NW 9.2 mph 16.1 mph N/A   Unknown
10:35 AM 37.4 °F 29.3 °F 17.6 °F 45% 30.10 in 10.0 mi WNW 12.7 mph 16.1 mph N/A   Unknown
10:55 AM 37.4 °F 32.1 °F 14.0 °F 38% 30.11 in 10.0 mi NW 6.9 mph 10.4 mph N/A   Unknown
11:15 AM 37.4 °F 30.8 °F 14.0 °F 38% 30.11 in 10.0 mi WNW 9.2 mph 20.7 mph N/A   Unknown
11:35 AM 37.4 °F 29.8 °F 14.0 °F 38% 30.11 in 10.0 mi WNW 11.5 mph 17.3 mph N/A   Unknown
12:15 PM 39.2 °F 31.6 °F 12.2 °F 33% 30.11 in 10.0 mi WNW 12.7 mph 18.4 mph N/A   Unknown
12:35 PM 41.0 °F 33.5 °F 14.0 °F 33% 30.11 in 10.0 mi WNW 13.8 mph 20.7 mph N/A   Unknown
12:55 PM 41.0 °F 32.5 °F 12.2 °F 31% 30.10 in 10.0 mi NW 17.3 mph - N/A   Unknown
1:15 PM 41.0 °F 34.3 °F 12.2 °F 31% 30.11 in 10.0 mi NW 11.5 mph - N/A   Unknown
1:35 PM 42.8 °F 36.2 °F 12.2 °F 29% 30.10 in 10.0 mi WNW 12.7 mph 19.6 mph N/A   Unknown
1:55 PM 41.0 °F 33.1 °F 10.4 °F 29% 30.10 in 10.0 mi West 15.0 mph 20.7 mph N/A   Unknown
2:15 PM 42.8 °F 35.1 °F 12.2 °F 29% 30.10 in 10.0 mi West 16.1 mph 23.0 mph N/A   Unknown
2:35 PM 42.8 °F 35.4 °F 10.4 °F 27% 30.10 in 10.0 mi WNW 15.0 mph 23.0 mph N/A   Unknown
2:55 PM 42.8 °F 34.3 °F 12.2 °F 29% 30.10 in 10.0 mi West 19.6 mph 25.3 mph N/A   Unknown
3:15 PM 42.8 °F 35.4 °F 12.2 °F 29% 30.10 in 10.0 mi West 15.0 mph 25.3 mph N/A   Unknown
3:35 PM 42.8 °F 34.5 °F 12.2 °F 29% 30.10 in 10.0 mi West 18.4 mph 27.6 mph N/A   Unknown
3:55 PM 42.8 °F 35.4 °F 12.2 °F 29% 30.10 in 10.0 mi West 15.0 mph 25.3 mph N/A   Unknown
4:15 PM 42.8 °F 34.8 °F 12.2 °F 29% 30.10 in 10.0 mi WNW 17.3 mph 21.9 mph N/A   Unknown
4:35 PM 42.8 °F 34.5 °F 12.2 °F 29% 30.10 in 10.0 mi WNW 18.4 mph 27.6 mph N/A   Unknown
4:55 PM 41.0 °F 32.5 °F 10.4 °F 29% 30.10 in 10.0 mi WNW 17.3 mph 24.2 mph N/A   Unknown
5:15 PM 41.0 °F 32.2 °F 12.2 °F 31% 30.11 in 10.0 mi West 18.4 mph 27.6 mph N/A   Unknown
5:35 PM 41.0 °F 33.1 °F 12.2 °F 31% 30.11 in 10.0 mi WNW 15.0 mph 21.9 mph N/A   Unknown
5:55 PM 39.2 °F 31.2 °F 12.2 °F 33% 30.12 in 10.0 mi WNW 13.8 mph 19.6 mph N/A   Unknown
6:15 PM 37.4 °F 29.3 °F 12.2 °F 36% 30.12 in 10.0 mi WNW 12.7 mph 18.4 mph N/A   Unknown
6:35 PM 37.4 °F 29.8 °F 12.2 °F 36% 30.13 in 10.0 mi WNW 11.5 mph 18.4 mph N/A   Unknown
6:55 PM 35.6 °F 29.2 °F 14.0 °F 41% 30.13 in 10.0 mi WNW 8.1 mph - N/A   Unknown
7:15 PM 35.6 °F 29.2 °F 15.8 °F 44% 30.13 in 10.0 mi WNW 8.1 mph - N/A   Unknown
7:35 PM 33.8 °F 27.7 °F 14.0 °F 44% 30.13 in 10.0 mi WNW 6.9 mph - N/A   Unknown
7:55 PM 33.8 °F 28.6 °F 15.8 °F 48% 30.13 in 10.0 mi West 5.8 mph - N/A   Unknown
8:15 PM 32.0 °F 27.5 °F 17.6 °F 55% 30.14 in 10.0 mi West 4.6 mph - N/A   Unknown
8:35 PM 32.0 °F 26.4 °F 17.6 °F 55% 30.15 in 10.0 mi West 5.8 mph - N/A   Unknown
8:55 PM 32.0 °F 26.4 °F 17.6 °F 55% 30.15 in 10.0 mi West 5.8 mph - N/A   Unknown
9:15 PM 30.2 °F 25.4 °F 17.6 °F 60% 30.16 in 10.0 mi West 4.6 mph - N/A   Unknown
9:35 PM 30.2 °F 25.4 °F 17.6 °F 60% 30.16 in 10.0 mi West 4.6 mph - N/A   Unknown
9:55 PM 30.2 °F 25.4 °F 17.6 °F 60% 30.16 in 10.0 mi West 4.6 mph - N/A   Unknown
10:15 PM 30.2 °F 25.4 °F 17.6 °F 60% 30.16 in 10.0 mi West 4.6 mph - N/A   Unknown
10:35 PM 28.4 °F 23.3 °F 17.6 °F 64% 30.17 in 10.0 mi West 4.6 mph - N/A   Unknown
10:55 PM 28.4 °F 22.2 °F 19.4 °F 69% 30.17 in 10.0 mi West 5.8 mph - N/A   Unknown
11:15 PM 28.4 °F 22.2 °F 19.4 °F 69% 30.17 in 10.0 mi WNW 5.8 mph - N/A   Unknown
11:35 PM 28.4 °F 22.2 °F 19.4 °F 69% 30.17 in 10.0 mi West 5.8 mph - N/A   Unknown
11:55 PM 28.4 °F 23.3 °F 19.4 °F 69% 30.17 in 10.0 mi West 4.6 mph - N/A   Unknown